9Z4CT-3 Weather Reports


Display with metric or nautical units.
time (UTC)temp
F
wind
direction
speed
MPH
gust
MPH
rain 1hr
in
rain 24hr
in
rain mn
in
humidity
%
barometer
mb
20260507040320 76 78 0.0 2.0 0.00 0.08 0.02 87 1015.3
20260507035342 76 71 0.0 2.0 0.00 0.08 0.02 87 1015.4
20260507034322 76 71 1.0 2.0 0.00 0.08 0.02 86 1015.5
20260507033317 76 70 1.0 2.0 0.00 0.08 0.02 86 1015.6
20260507032339 76 69 0.0 0.0 0.00 0.08 0.02 86 1015.7
20260507031317 76 69 0.0 0.0 0.00 0.08 0.02 86 1015.7
20260507030334 76 69 0.0 0.0 0.00 0.08 0.02 86 1015.7
20260507025352 76 69 0.0 0.0 0.00 0.08 0.02 85 1015.7
20260507024352 77 69 0.0 0.0 0.00 0.08 0.02 85 1015.6
20260507023332 77 69 0.0 0.0 0.00 0.08 0.02 85 1015.7
20260507022313 77 69 0.0 1.0 0.00 0.08 0.02 85 1015.6
20260507021314 77 69 0.0 2.0 0.00 0.08 0.02 85 1015.7
20260507020318 77 69 0.0 2.0 0.00 0.08 0.02 85 1015.8
20260507015335 77 69 2.0 4.0 0.00 0.08 0.02 84 1015.8
20260507014315 77 106 0.0 0.0 0.00 0.08 0.02 84 1015.8
20260507013319 77 106 0.0 3.0 0.00 0.08 0.02 84 1015.7
20260507012319 78 105 1.0 4.0 0.00 0.08 0.02 84 1015.6
20260507011340 78 106 1.0 3.0 0.00 0.08 0.02 83 1015.5
20260507010333 78 116 1.0 3.0 0.00 0.08 0.02 83 1015.4
20260507005359 78 117 1.0 3.0 0.00 0.08 0.02 83 1015.2
20260507004313 78 121 1.0 4.0 0.00 0.08 0.02 83 1015.2
20260507003327 78 109 0.0 3.0 0.00 0.08 0.02 82 1014.9
20260507002326 79 100 1.0 3.0 0.00 0.08 0.02 82 1014.9
20260507001330 79 100 2.0 6.0 0.00 0.08 0.02 82 1014.8
20260507000350 79 109 1.0 4.0 0.00 0.08 0.02 81 1014.8
20260506235327 79 127 1.0 4.0 0.00 0.08 0.02 81 1014.7
20260506234328 79 128 1.0 3.0 0.00 0.08 0.02 80 1014.6
20260506233330 80 127 2.0 4.0 0.00 0.08 0.02 80 1014.5
20260506232330 80 113 2.0 3.0 0.00 0.08 0.02 79 1014.3
20260506231329 80 110 1.0 3.0 0.00 0.08 0.02 79 1014.2
20260506230330 81 121 1.0 3.0 0.00 0.08 0.02 78 1014.2
20260506225328 81 138 1.0 2.0 0.00 0.08 0.02 77 1014.2
20260506224326 82 138 1.0 3.0 0.00 0.08 0.02 76 1014.1
20260506223325 82 134 1.0 3.0 0.00 0.08 0.02 75 1014.1
20260506222328 83 127 0.0 3.0 0.00 0.08 0.02 74 1014.0
20260506221330 83 101 1.0 5.0 0.00 0.08 0.02 73 1014.0
20260506220328 84 132 0.0 3.0 0.00 0.08 0.02 72 1013.9
20260506215348 84 127 1.0 7.0 0.00 0.08 0.02 71 1013.8
20260506214351 85 114 1.0 7.0 0.00 0.08 0.02 70 1013.7
20260506213312 85 99 1.0 7.0 0.00 0.08 0.02 68 1013.7
20260506212332 86 82 1.0 10.0 0.00 0.08 0.02 67 1013.5
20260506211314 86 123 3.0 9.0 0.00 0.08 0.02 66 1013.4
20260506210315 87 178 1.0 8.0 0.00 0.08 0.02 64 1013.3
20260506205316 88 117 3.0 9.0 0.00 0.08 0.02 64 1013.2
20260506204336 89 135 2.0 11.0 0.00 0.08 0.02 64 1013.1
20260506203344 89 122 3.0 10.0 0.00 0.08 0.02 62 1013.2
20260506202325 90 127 2.0 10.0 0.00 0.08 0.02 62 1013.1
20260506201326 90 197 2.0 10.0 0.00 0.08 0.02 60 1013.1
20260506200322 90 178 3.0 7.0 0.00 0.08 0.02 61 1012.9
20260506195317 90 109 3.0 7.0 0.00 0.08 0.02 60 1012.9
20260506194317 91 134 1.0 13.0 0.00 0.08 0.02 61 1013.0
20260506193318 91 177 1.0 4.0 0.00 0.08 0.02 60 1013.1
20260506192337 91 146 1.0 11.0 0.00 0.08 0.02 60 1013.2
20260506191320 92 142 3.0 9.0 0.00 0.08 0.02 57 1013.2
20260506190320 92 133 2.0 6.0 0.00 0.08 0.02 57 1013.2
20260506185318 92 129 1.0 7.0 0.00 0.08 0.02 58 1013.4
20260506184339 93 86 3.0 11.0 0.00 0.08 0.02 59 1013.5
20260506183316 93 142 2.0 9.0 0.00 0.08 0.02 57 1013.7
20260506182319 93 183 2.0 10.0 0.00 0.08 0.02 58 1013.7
20260506181319 92 103 3.0 9.0 0.00 0.35 0.02 59 1013.8
20260506180319 92 151 1.0 10.0 0.00 0.35 0.02 60 1013.9
20260506175339 92 157 1.0 7.0 0.00 0.35 0.02 60 1014.1
20260506174332 92 120 3.0 7.0 0.00 0.35 0.02 59 1014.3
20260506173351 92 116 3.0 13.0 0.00 0.35 0.02 61 1014.3
20260506172332 92 127 1.0 9.0 0.00 0.35 0.02 62 1014.4
20260506171334 92 165 2.0 8.0 0.00 0.35 0.02 60 1014.5
20260506170314 93 178 1.0 11.0 0.00 0.35 0.02 61 1014.6
20260506165348 92 148 3.0 8.0 0.00 0.35 0.02 60 1014.6
20260506164326 91 165 3.0 7.0 0.00 0.35 0.02 61 1014.9
20260506163331 91 142 2.0 8.0 0.00 0.35 0.02 61 1015.2
20260506162314 91 129 2.0 7.0 0.00 0.35 0.02 63 1015.3
20260506161327 90 190 2.0 7.0 0.00 0.35 0.02 63 1015.5
20260506160339 91 196 2.0 15.0 0.00 0.35 0.02 64 1015.4
20260506155313 91 166 3.0 9.0 0.00 0.35 0.02 62 1015.6
20260506154353 91 189 2.0 7.0 0.00 0.35 0.02 64 1015.6
20260506153330 90 182 1.0 8.0 0.00 0.35 0.02 64 1015.8
20260506152331 90 194 2.0 9.0 0.00 0.35 0.02 64 1015.8
20260506151312 90 213 2.0 6.0 0.00 0.35 0.02 66 1015.7
20260506150329 90 153 2.0 5.0 0.00 0.35 0.02 65 1015.8
20260506145325 89 203 2.0 7.0 0.00 0.35 0.02 67 1015.9
20260506144321 88 124 3.0 10.0 0.00 0.35 0.02 67 1016.0
20260506143319 88 98 4.0 11.0 0.00 0.35 0.02 70 1016.0
20260506142318 88 189 1.0 7.0 0.00 0.35 0.02 70 1016.1
20260506141337 87 79 1.0 7.0 0.00 0.35 0.02 71 1016.1
20260506140327 86 123 2.0 7.0 0.00 0.35 0.02 71 1016.1
20260506135345 85 184 3.0 12.0 0.00 0.35 0.02 72 1016.2
20260506134322 85 182 2.0 13.0 0.00 0.35 0.02 73 1016.3
20260506133323 84 195 1.0 5.0 0.00 0.35 0.02 75 1016.3
20260506132324 84 153 5.0 11.0 0.00 0.35 0.02 76 1016.3
20260506131324 83 186 2.0 9.0 0.00 0.35 0.02 78 1016.3
20260506130325 82 171 2.0 5.0 0.00 0.35 0.02 80 1016.4
20260506125322 82 139 2.0 5.0 0.00 0.35 0.02 82 1016.3
20260506124323 81 191 3.0 6.0 0.00 0.35 0.02 84 1016.3
20260506123322 81 128 1.0 10.0 0.00 0.35 0.02 85 1016.3
20260506122320 81 147 1.0 11.0 0.00 0.35 0.02 87 1016.1
20260506121337 80 132 3.0 7.0 0.00 0.35 0.02 88 1016.0
20260506120349 79 129 3.0 5.0 0.00 0.35 0.02 89 1016.0
20260506115325 78 118 2.0 6.0 0.00 0.35 0.02 89 1016.1
20260506114324 78 122 1.0 4.0 0.00 0.35 0.02 89 1016.0
20260506113326 77 110 1.0 3.0 0.00 0.35 0.02 89 1015.9
20260506112330 77 157 0.0 3.0 0.00 0.35 0.02 89 1015.9
20260506111330 77 79 1.0 5.0 0.00 0.35 0.02 89 1015.7
20260506110331 76 113 1.0 3.0 0.00 0.35 0.02 89 1015.5
20260506105346 76 154 2.0 3.0 0.00 0.35 0.02 89 1015.5
20260506104326 76 160 1.0 2.0 0.00 0.35 0.02 89 1015.4
20260506103351 75 161 0.0 2.0 0.00 0.35 0.02 89 1015.3
20260506102331 75 161 1.0 2.0 0.00 0.35 0.02 89 1015.2
20260506101331 75 161 0.0 2.0 0.00 0.35 0.02 89 1015.1
20260506100335 75 162 0.0 0.0 0.00 0.35 0.02 89 1015.1
20260506095313 75 162 0.0 0.0 0.00 0.35 0.02 89 1015.2
20260506094313 75 165 1.0 2.0 0.00 0.35 0.02 89 1015.1
20260506093318 75 116 0.0 0.0 0.00 0.35 0.02 88 1015.1
20260506092320 75 116 0.0 0.0 0.00 0.35 0.02 88 1015.1
20260506091321 75 115 0.0 0.0 0.00 0.35 0.02 88 1015.0
20260506090324 75 115 0.0 0.0 0.00 0.35 0.02 88 1015.0
20260506085323 75 115 0.0 0.0 0.00 0.35 0.02 88 1015.0
20260506084341 75 115 0.0 1.0 0.00 0.35 0.02 88 1015.0
20260506083319 75 115 0.0 1.0 0.00 0.35 0.02 88 1014.9
20260506082321 76 115 0.0 1.0 0.00 0.35 0.02 88 1014.8
20260506081320 76 115 0.0 2.0 0.00 0.35 0.02 88 1014.7
20260506080321 76 115 0.0 1.0 0.00 0.35 0.02 88 1014.6
20260506073332 77 115 0.0 1.0 0.08 0.35 0.02 88 1014.4
20260506072316 77 115 0.0 1.0 0.08 0.35 0.02 87 1014.3
20260506071316 77 115 0.0 1.0 0.08 0.35 0.02 87 1014.3
20260506070333 77 115 1.0 5.0 0.08 0.35 0.02 87 1014.3
20260506062348 77 113 0.0 2.0 0.00 0.28 0.00 87 1014.4
20260506061316 77 113 0.0 3.0 0.00 0.28 0.00 87 1014.4
20260506060320 77 110 1.0 3.0 0.00 0.28 0.00 87 1014.4
20260506051314 77 102 0.0 2.0 0.00 0.28 0.00 87 1014.6
20260506050314 77 102 1.0 2.0 0.00 0.28 0.00 87 1014.7
20260506044348 77 102 1.0 2.0 0.00 0.28 0.00 86 1014.6
20260506043330 77 102 1.0 2.0 0.00 0.28 0.00 86 1014.6
20260506042351 77 102 0.0 1.0 0.00 0.28 0.00 86 1014.9
20260506041352 77 102 0.0 2.0 0.00 0.28 0.07 86 1015.0